Temperature
18 17 17 17 16 16 16 16 16 16 15 15 15 15 15 14 14 14 14 14 14 14 14 14 14 14 14 14 14 14 13 13 13 13 13 13 13 13 13 13 13 13 13
18 17 17 16 16 16 16 16 16 15 15 15 15 15 14 14 14 14 14 14 14 14 14 14 14 14 14 14 14 14 13 13 13 13 14 14 13 13 13 13 13 13 13
18 17 17 16 16 16 16 16 15 15 15 15 15 15 14 14 14 14 14 14 14 14 14 13 13 13 13 13 13 13 13 13 13 13 13 14 14 13 13 13 12 12 12
18 17 17 16 16 16 16 15 15 15 15 15 14 14 14 14 14 14 14 14 14 13 13 13 13 13 13 13 13 13 13 13 13 13 13 13 13 14 13 13 12 12 12
17 17 17 16 16 16 15 15 15 15 15 15 14 14 14 14 14 14 14 14 14 13 13 13 13 13 13 13 13 13 13 13 13 13 13 13 13 13 13 13 12 12 12
17 17 16 16 16 16 15 15 15 15 15 15 14 14 14 14 14 14 14 14 13 13 13 13 13 13 13 13 13 13 13 13 13 13 13 13 13 13 13 13 13 12 12
17 17 16 16 16 15 15 15 15 15 15 14 14 14 14 14 14 14 13 13 13 13 13 13 13 13 13 13 13 13 13 13 13 13 12 12 12 13 13 13 13 12 12
17 16 16 15 15 15 15 15 15 14 14 14 14 14 14 14 14 14 13 13 13 13 13 13 13 13 13 13 13 12 13 12 12 12 12 12 12 12 12 12 12 12 12
16 16 15 15 15 15 15 15 14 14 14 14 14 14 14 14 14 14 13 13 13 13 13 13 13 13 13 12 12 12 12 12 12 12 12 12 12 12 12 12 12 12 12
16 15 15 15 15 14 14 14 14 14 14 14 14 14 14 14 14 13 13 13 13 13 13 13 13 13 12 12 12 12 12 12 12 12 12 12 12 12 12 12 12 12 12
16 15 15 15 14 14 14 14 14 14 14 14 14 13 13 13 13 13 13 13 13 13 13 13 13 12 12 12 12 12 12 12 12 12 12 12 12 12 12 12 11 11 11
16 15 14 14 14 14 14 13 13 13 13 13 13 13 13 13 13 13 13 13 13 13 13 12 12 12 12 12 12 12 12 12 12 12 11 11 11 11 11 11 11 11 11
15 15 14 14 14 14 13 13 13 13 13 13 13 13 13 13 13 13 13 12 12 12 12 12 12 12 12 12 12 12 12 11 11 11 11 11 11 11 11 11 11 11 11
15 14 14 14 13 13 13 13 13 13 13 13 13 13 13 13 13 12 12 12 12 12 12 12 12 12 12 11 11 11 11 11 11 11 11 11 11 11 11 11 11 11 10
14 14 14 13 13 13 13 13 13 13 12 12 12 12 12 12 12 12 12 12 12 12 12 12 12 12 11 11 11 11 11 11 11 11 11 11 11 11 11 11 11 10 10
14 14 14 13 13 13 13 12 12 12 12 12 12 12 12 12 12 12 12 11 11 11 11 11 11 11 11 11 11 11 11 11 11 10 10 10 10 11 11 11 10 10 10
14 13 13 13 13 13 12 12 12 12 12 12 11 11 11 11 11 11 11 11 11 11 11 11 11 11 11 11 11 11 10 10 10 10 10 10 10 10 10 10 10 10 10
13 13 13 13 13 12 12 12 11 11 11 11 11 11 11 11 11 11 11 11 10 11 11 11 11 10 10 10 10 10 10 10 10 10 9 9 10 10 10 10 10 10 10
13 13 13 12 12 12 11 11 11 11 11 11 10 11 11 11 10 10 10 10 10 10 10 10 10 10 10 10 10 10 9 9 9 9 9 9 9 9 9 9 9 9 9
12 12 12 12 12 11 11 11 10 10 10 10 10 10 10 10 10 10 10 10 10 10 10 10 9 9 9 9 10 9 9 9 9 9 9 9 9 9 9 9 9 9 9
12 11 11 11 11 11 11 10 10 10 10 10 9 9 10 9 9 10 10 10 10 9 9 9 9 9 9 9 9 9 9 9 9 9 9 9 9 9 9 9 8 8 8
11 11 11 10 10 10 10 10 9 9 9 9 9 9 9 9 9 9 9 9 9 9 9 9 9 9 9 9 9 9 9 8 8 8 8 8 9 9 9 8 8 8 8
11 10 10 10 10 10 9 9 9 9 9 8 8 9 9 9 9 9 9 8 8 8 8 8 8 8 8 8 8 8 8 8 8 8 8 8 8 8 8 8 8 8 8
10 10 10 10 9 9 9 9 9 9 8 8 8 8 8 8 8 8 8 8 8 8 8 8 8 8 8 8 8 8 8 8 8 7 7 7 7 7 7 7 7 7 7
10 9 9 9 9 9 8 8 8 8 8 8 8 8 8 8 8 8 7 8 8 8 8 8 8 7 7 7 7 7 7 7 7 7 7 7 7 7 7 7 7 7 7
9 9 9 9 9 8 8 8 8 8 8 8 7 7 7 7 7 7 7 7 7 7 7 7 7 7 7 7 7 7 7 7 7 6 6 7 7 6 6 6 6 6 6
Wind_Speed
7 6 6 6 6 6 6 5 5 5 4 3 3 3 3 2 2 1 2 2 2 2 2 2 2 2 2 2 2 2 3 2 2 2 3 3 3 3 3 3 3 4 4
6 6 6 7 7 7 6 6 6 6 5 3 2 2 2 2 2 2 2 2 1 1 1 1 1 1 1 1 2 1 1 2 0 0 1 2 3 2 2 2 2 3 3
7 8 7 8 7 7 7 6 7 7 6 5 3 3 2 2 2 2 2 2 2 1 1 1 1 1 1 1 1 1 1 1 1 1 1 1 0 1 2 2 1 2 2
7 7 7 7 8 7 7 7 7 7 7 7 5 5 4 3 3 3 2 2 2 2 2 2 1 2 1 1 2 1 1 1 1 1 1 1 1 1 1 2 1 1 1
7 7 7 7 7 7 7 7 7 7 7 7 6 5 4 4 3 3 3 3 3 2 2 2 2 2 2 2 2 2 2 2 2 1 1 1 1 2 1 1 1 1 1
5 5 6 6 6 7 7 7 7 7 7 7 7 7 6 4 4 4 4 3 2 2 2 2 2 2 2 2 2 2 3 2 2 2 2 2 2 1 1 2 2 1 1
3 4 5 5 6 7 7 7 8 7 7 7 7 7 6 6 5 4 4 4 3 3 3 3 3 2 2 2 2 3 3 3 3 3 3 3 3 2 2 2 1 1 1
2 3 3 4 5 6 7 7 8 8 7 8 8 7 6 5 4 4 4 4 3 3 3 4 3 3 3 3 3 3 3 3 3 4 3 3 3 3 3 2 2 2 2
2 2 2 3 4 5 6 7 7 8 7 8 7 7 6 5 5 5 4 4 3 3 4 4 4 4 4 4 3 3 3 3 3 3 3 3 3 3 3 3 3 3 3
2 2 2 2 3 4 5 6 6 6 7 7 6 5 6 6 5 5 4 4 4 3 4 4 4 4 4 4 4 3 3 3 3 3 3 3 3 3 3 4 3 4 4
2 1 1 1 2 3 4 5 5 5 5 5 6 6 5 5 5 4 4 4 4 4 4 4 4 4 4 4 4 5 4 4 4 4 4 4 4 3 3 4 4 4 4
1 1 1 1 2 2 3 3 4 4 4 4 5 5 5 5 4 4 4 5 4 4 4 4 4 4 4 5 5 5 5 5 5 5 5 5 4 4 4 4 5 4 4
1 1 1 1 1 1 2 2 3 3 3 3 3 4 4 4 4 4 4 4 4 4 4 4 5 4 4 5 5 5 5 6 6 5 5 5 5 5 4 5 5 4 4
1 1 1 1 1 1 1 2 2 2 2 3 3 3 3 4 4 4 4 4 4 4 4 5 5 4 5 5 5 5 5 6 5 5 5 6 6 6 5 5 5 4 4
2 1 1 1 1 1 1 2 1 2 2 3 3 3 3 3 3 3 4 4 4 4 4 4 4 4 4 4 5 5 5 5 5 5 6 5 4 4 4 4 5 5 4
2 2 2 2 2 2 2 2 2 2 2 3 3 3 2 2 2 3 3 4 4 4 4 4 4 4 4 2 3 5 5 5 5 5 5 4 5 5 5 4 4 5 6
3 3 3 3 3 3 3 3 2 2 2 2 2 2 2 2 2 2 3 3 4 4 4 4 4 5 4 3 4 5 5 5 5 4 4 4 4 5 5 6 6 6 6
4 4 3 3 2 2 2 2 2 2 2 2 2 2 2 2 2 3 3 3 3 4 4 4 5 5 4 4 4 5 6 5 5 5 5 5 5 4 5 5 6 6 6
3 3 3 2 2 2 2 2 2 2 2 3 3 2 2 3 3 3 4 4 3 4 4 4 5 5 5 4 5 5 5 5 6 5 5 5 5 2 4 6 6 6 5
1 2 2 2 2 2 2 2 3 3 3 3 3 3 3 3 4 4 4 3 3 4 3 4 4 5 5 4 5 6 4 5 5 4 4 4 4 2 5 6 6 6 5
1 1 2 2 2 2 2 2 3 3 3 3 3 3 3 4 4 3 3 3 3 3 3 3 3 4 4 3 4 5 5 5 5 4 4 3 3 4 5 5 5 4 4
2 2 2 2 2 2 3 3 3 3 3 3 3 3 3 3 3 3 3 3 3 3 3 3 3 3 3 3 4 5 5 5 5 4 4 2 3 4 4 4 3 2 3
2 2 3 2 2 2 3 3 3 2 2 3 3 4 4 3 3 3 4 3 3 3 3 3 3 3 3 3 4 6 6 5 4 3 2 2 4 5 4 3 4 5 5
2 3 3 3 3 3 3 3 3 2 3 3 3 3 3 3 3 3 3 4 4 4 4 4 4 3 3 3 3 3 4 4 4 3 2 4 5 4 3 4 4 4 3
3 3 3 4 4 3 3 3 3 3 3 3 3 3 3 3 3 3 3 4 4 4 4 4 4 4 4 3 3 4 4 4 4 3 3 3 4 4 3 3 3 3 3
4 4 4 4 4 4 4 3 3 3 4 3 3 3 3 3 3 3 3 3 4 4 5 5 5 4 3 3 4 4 4 4 4 4 5 5 5 5 5 4 4 4 4
Wind_Direction
198 195 193 193 194 191 186 171 167 160 151 152 161 162 158 155 151 140 122 114 109 105 106 114 104 97 91 86 90 94 106 97 101 126 120 113 93 85 81 68 62 62 56
196 187 187 188 193 187 183 177 177 171 166 162 166 171 160 171 167 166 157 152 135 127 123 153 145 134 112 113 100 92 100 102 102 284 169 148 145 110 91 90 74 74 75
206 195 194 194 193 191 187 186 183 175 172 166 162 154 149 167 172 181 185 185 188 185 192 216 194 184 195 183 183 170 193 178 154 345 323 282 132 130 130 98 81 74 82
212 203 198 198 196 194 189 190 188 183 179 175 179 181 191 195 202 197 192 196 205 213 218 217 226 219 223 216 228 226 240 243 216 178 305 339 7 268 158 146 119 98 109
209 207 204 201 197 191 189 191 189 186 184 186 187 197 208 209 202 202 205 208 203 211 212 215 223 230 234 238 240 241 245 251 253 238 212 202 208 265 276 209 166 165 163
196 202 200 196 193 188 188 190 193 190 188 193 196 203 209 212 207 210 213 214 205 206 213 219 221 228 234 236 238 238 242 252 259 252 239 239 241 243 252 254 218 220 175
176 181 185 191 190 188 189 193 195 196 194 198 205 208 213 215 218 220 221 223 218 214 214 220 225 224 229 232 234 239 243 242 247 255 257 254 254 258 257 250 247 252 222
139 158 173 186 188 190 194 199 199 201 201 206 209 211 214 218 225 226 230 232 233 228 219 220 222 222 223 225 230 243 240 245 245 251 256 250 249 249 243 246 245 253 235
127 131 159 178 186 191 194 199 201 202 203 208 209 211 217 218 222 227 229 235 237 229 220 215 216 218 221 222 221 236 236 240 245 250 252 254 248 244 247 241 241 255 258
142 133 147 175 184 191 193 195 201 203 203 208 209 211 217 219 221 223 225 230 228 215 214 216 212 215 219 220 220 233 235 231 235 246 252 257 257 248 243 243 240 246 259
156 148 148 165 173 180 186 192 198 199 198 203 209 212 214 216 215 221 225 229 229 222 221 223 222 221 223 224 221 229 226 233 232 227 233 241 248 241 237 234 231 234 239
149 141 143 137 139 163 186 194 198 203 204 206 209 215 214 209 213 220 224 226 227 226 229 229 227 229 232 232 230 231 231 234 238 238 237 241 237 237 235 231 230 230 232
160 137 133 139 152 166 180 189 200 209 203 204 210 211 213 214 216 220 220 222 225 224 225 226 227 229 233 234 234 234 235 237 241 244 244 243 239 235 228 228 229 227 224
189 151 134 149 160 172 181 182 189 195 195 194 206 215 222 225 223 224 223 222 225 224 223 224 227 230 231 232 234 235 237 238 241 246 248 248 244 240 229 226 227 221 217
219 215 201 179 174 181 201 192 188 192 197 198 204 223 231 234 232 224 225 226 225 228 230 228 230 233 236 236 236 234 238 240 242 243 245 247 249 274 249 237 227 213 213
227 232 234 224 215 209 213 204 195 204 203 209 210 215 231 236 239 237 227 228 228 233 235 234 239 241 241 227 239 243 237 240 242 247 250 245 228 229 227 242 247 234 222
233 238 247 242 233 230 223 219 207 202 201 215 225 212 222 238 242 247 235 231 232 232 238 241 242 244 243 209 222 242 245 245 246 248 250 243 237 234 223 210 213 225 237
249 245 249 250 244 229 219 222 215 210 212 219 225 229 232 240 242 239 239 241 241 237 240 243 241 245 245 211 218 230 240 248 247 247 250 245 242 236 230 221 215 218 218
262 255 255 250 240 221 213 210 214 216 222 231 235 238 238 239 240 237 239 241 246 247 246 249 248 245 241 218 220 225 239 243 245 248 251 248 243 218 222 224 221 220 216
262 256 247 241 229 212 207 212 224 228 232 239 244 242 244 241 242 244 244 248 248 250 252 249 249 248 253 222 213 224 238 242 244 246 245 243 247 219 211 225 225 223 219
262 251 244 242 233 211 208 223 232 241 249 251 249 245 247 248 245 244 244 239 237 244 249 249 249 247 251 218 203 220 238 239 241 240 242 238 204 210 210 238 237 237 230
264 247 238 240 233 215 217 236 252 265 267 260 254 250 252 252 248 239 243 236 227 231 238 243 249 246 242 235 207 207 235 255 243 242 240 223 172 193 212 231 227 189 211
261 250 238 239 238 227 232 248 266 272 267 265 265 260 259 254 247 241 240 241 235 235 237 236 242 247 240 227 201 203 216 237 247 247 238 203 190 196 204 205 191 194 209
254 252 243 240 249 250 249 257 266 262 257 263 269 262 257 257 248 244 240 239 238 239 240 242 244 243 240 234 221 219 217 216 234 241 193 187 190 200 197 186 193 205 209
248 249 252 250 257 261 261 263 257 253 254 261 270 267 256 256 253 252 254 252 247 248 246 244 244 239 242 243 250 243 234 230 229 224 221 211 196 199 199 200 200 202 201
254 252 255 259 261 262 264 264 256 252 254 262 276 278 267 258 250 254 275 289 259 258 258 262 262 266 264 242 238 248 245 224 200 210 220 216 211 210 206 205 203 205 206
Height
1524 1525 1526 1527 1529 1531 1532 1533 1534 1535 1536 1537 1538 1539 1539 1540 1541 1541 1542 1542 1542 1542 1542 1542 1542 1542 1542 1542 1542 1541 1541 1541 1541 1542 1542 1541 1541 1541 1540 1541 1541 1541 1541
1521 1523 1524 1525 1527 1529 1530 1532 1533 1534 1535 1536 1537 1538 1539 1540 1541 1541 1541 1542 1542 1542 1542 1542 1542 1542 1542 1541 1541 1541 1541 1541 1541 1542 1542 1542 1543 1541 1541 1541 1541 1541 1541
1519 1521 1522 1524 1525 1527 1528 1530 1531 1532 1534 1535 1536 1537 1538 1539 1540 1540 1541 1541 1541 1541 1541 1542 1542 1541 1541 1541 1541 1541 1541 1541 1541 1541 1542 1542 1542 1542 1542 1541 1541 1540 1540
1517 1519 1520 1522 1523 1525 1527 1529 1530 1531 1532 1533 1535 1536 1537 1538 1539 1540 1540 1540 1540 1541 1541 1541 1541 1541 1541 1540 1540 1540 1540 1540 1540 1540 1540 1541 1541 1541 1541 1541 1541 1540 1540
1515 1516 1518 1520 1521 1523 1525 1526 1528 1529 1530 1532 1533 1534 1536 1537 1538 1538 1539 1539 1539 1539 1539 1539 1539 1539 1539 1539 1539 1539 1539 1539 1540 1540 1540 1539 1539 1540 1540 1540 1540 1540 1539
1513 1514 1516 1518 1520 1521 1523 1524 1526 1527 1528 1530 1531 1532 1534 1535 1536 1537 1537 1538 1538 1538 1538 1538 1538 1538 1538 1538 1538 1538 1538 1538 1538 1538 1539 1539 1539 1539 1539 1539 1539 1539 1539
1512 1513 1514 1515 1517 1518 1520 1522 1523 1525 1526 1527 1529 1531 1532 1533 1534 1535 1535 1536 1536 1536 1536 1536 1536 1536 1536 1536 1536 1536 1536 1536 1536 1537 1537 1537 1537 1537 1537 1538 1537 1537 1538
1510 1511 1512 1513 1514 1516 1517 1519 1520 1522 1524 1525 1527 1529 1530 1531 1532 1533 1533 1534 1534 1534 1534 1534 1534 1534 1534 1534 1534 1534 1534 1534 1534 1535 1535 1535 1535 1535 1535 1536 1536 1536 1536
1509 1510 1510 1512 1513 1514 1515 1516 1518 1520 1521 1523 1524 1526 1528 1529 1529 1530 1531 1532 1532 1532 1532 1532 1532 1532 1532 1532 1532 1532 1532 1532 1532 1532 1533 1533 1533 1533 1533 1533 1534 1535 1534
1508 1509 1509 1510 1511 1512 1513 1514 1516 1517 1519 1520 1522 1523 1525 1526 1527 1528 1528 1529 1529 1529 1530 1530 1530 1530 1530 1530 1530 1530 1530 1530 1530 1530 1530 1530 1531 1531 1531 1531 1531 1532 1533
1507 1508 1508 1509 1509 1510 1511 1512 1514 1515 1517 1518 1519 1521 1522 1523 1524 1525 1525 1526 1526 1527 1527 1527 1527 1527 1527 1527 1527 1527 1527 1528 1528 1528 1528 1528 1528 1528 1528 1528 1529 1529 1530
1507 1507 1508 1508 1508 1509 1510 1510 1512 1513 1514 1515 1517 1518 1519 1520 1521 1521 1522 1523 1523 1524 1525 1525 1525 1525 1525 1525 1525 1525 1525 1525 1525 1525 1525 1526 1526 1526 1526 1526 1526 1527 1527
1506 1506 1507 1507 1507 1507 1508 1509 1509 1510 1511 1513 1514 1515 1516 1517 1517 1518 1519 1520 1520 1521 1521 1521 1522 1522 1522 1522 1522 1522 1522 1522 1522 1522 1523 1523 1523 1523 1523 1523 1524 1524 1524
1504 1505 1505 1505 1506 1506 1506 1507 1507 1508 1509 1510 1510 1512 1512 1513 1514 1515 1516 1517 1517 1517 1518 1518 1518 1518 1518 1518 1518 1518 1518 1518 1519 1519 1519 1519 1519 1520 1520 1520 1521 1521 1521
1503 1503 1503 1504 1504 1504 1505 1505 1505 1506 1506 1507 1508 1509 1510 1511 1511 1512 1512 1513 1514 1514 1515 1515 1515 1515 1515 1515 1515 1515 1515 1515 1515 1515 1515 1515 1515 1516 1516 1517 1517 1518 1518
1501 1501 1502 1502 1502 1502 1503 1503 1503 1504 1504 1505 1505 1506 1507 1507 1508 1508 1509 1510 1510 1511 1511 1511 1511 1511 1511 1511 1511 1511 1511 1511 1511 1511 1511 1511 1511 1512 1513 1513 1514 1515 1515
1499 1499 1500 1500 1500 1500 1500 1501 1501 1501 1502 1502 1503 1503 1503 1504 1505 1505 1506 1506 1507 1507 1507 1507 1507 1507 1507 1507 1507 1508 1508 1508 1508 1508 1508 1508 1508 1508 1509 1510 1510 1511 1512
1496 1497 1497 1497 1498 1498 1498 1498 1499 1499 1499 1500 1500 1500 1500 1501 1501 1502 1502 1502 1503 1503 1503 1503 1503 1503 1503 1504 1504 1504 1504 1504 1504 1504 1504 1504 1504 1505 1506 1506 1507 1508 1508
1494 1494 1495 1495 1495 1495 1495 1495 1496 1496 1496 1497 1497 1497 1497 1497 1498 1498 1498 1499 1499 1499 1499 1499 1499 1499 1499 1499 1500 1500 1500 1500 1500 1500 1500 1501 1501 1501 1502 1503 1503 1504 1504
1492 1492 1492 1492 1492 1492 1492 1492 1493 1493 1493 1493 1493 1493 1494 1494 1494 1494 1494 1494 1494 1494 1495 1495 1495 1495 1495 1495 1495 1496 1496 1496 1496 1496 1496 1497 1497 1497 1498 1499 1500 1500 1500
1490 1489 1489 1490 1490 1489 1489 1490 1490 1490 1490 1490 1490 1490 1490 1491 1491 1491 1491 1490 1490 1490 1490 1490 1491 1491 1491 1491 1491 1491 1492 1492 1492 1492 1492 1492 1493 1493 1494 1495 1496 1496 1497
1487 1487 1487 1487 1487 1487 1487 1487 1487 1487 1487 1486 1486 1486 1487 1487 1487 1487 1486 1486 1486 1486 1486 1486 1486 1486 1487 1487 1487 1487 1488 1488 1488 1488 1488 1488 1489 1489 1489 1490 1491 1492 1493
1485 1485 1485 1485 1484 1484 1484 1484 1484 1483 1483 1483 1482 1483 1483 1483 1483 1483 1482 1482 1483 1482 1482 1482 1482 1482 1482 1482 1483 1483 1483 1484 1484 1484 1484 1484 1485 1485 1485 1486 1486 1488 1489
1483 1482 1482 1482 1482 1482 1481 1481 1481 1480 1480 1480 1479 1479 1479 1479 1479 1479 1479 1479 1479 1479 1479 1479 1478 1478 1478 1478 1479 1479 1479 1479 1480 1480 1480 1480 1481 1481 1481 1482 1483 1484 1484
1480 1479 1480 1479 1479 1479 1478 1478 1477 1477 1477 1476 1476 1476 1475 1475 1475 1475 1474 1474 1474 1474 1474 1474 1474 1474 1474 1474 1474 1475 1475 1475 1476 1476 1476 1476 1477 1477 1478 1479 1479 1480 1481
1476 1476 1476 1476 1476 1475 1475 1474 1474 1474 1473 1473 1472 1472 1471 1471 1470 1470 1470 1469 1469 1469 1470 1470 1470 1470 1470 1470 1470 1470 1470 1471 1471 1472 1472 1472 1473 1473 1474 1474 1475 1476 1477